W2JV-2 Weather Reports


time (UTC)temp
C
wind
direction
speed
KPH
gust
KPH
rain 1hr
cm
rain 24hr
cm
rain mn
cm
humidity
%
barometer
mb
20260901221503 23 322 0.0 0.0 0.00 2.87 2.87 88 1014.4
20260901221003 23 322 0.0 0.0 0.00 2.87 2.87 87 1014.4
20260901220504 23 294 0.0 1.6 0.00 2.87 2.87 87 1014.4
20260901220002 23 219 1.6 4.8 0.00 2.87 2.87 87 1014.2
20260901215504 23 310 1.6 4.8 0.00 2.87 2.87 87 1014.4
20260901215003 23 326 1.6 4.8 0.00 2.87 2.87 87 1014.3
20260901214503 23 301 0.0 4.8 0.00 2.87 2.87 87 1014.3
20260901214003 23 331 1.6 4.8 0.00 2.87 2.87 87 1014.3
20260901213502 24 348 1.6 4.8 0.00 2.87 2.87 87 1014.4
20260901213002 24 357 0.0 0.0 0.00 2.87 2.87 87 1014.3
20260901212502 24 298 0.0 1.6 0.00 2.87 2.87 87 1014.3
20260901212002 24 295 1.6 4.8 0.00 2.87 2.87 87 1014.3
20260901211502 24 121 1.6 3.2 0.00 2.87 2.87 87 1014.3
20260901210003 25 157 0.0 0.0 0.00 2.87 2.87 87 1014.4
20260901205003 25 319 0.0 1.6 0.00 2.87 2.87 87 1014.3
20260901204502 25 338 0.0 0.0 0.00 2.87 2.87 87 1014.2
20260901204003 25 338 0.0 0.0 0.00 2.87 2.87 87 1014.3
20260901203002 25 337 0.0 3.2 0.00 2.87 2.87 87 1014.1
20260901202503 25 89 1.6 11.3 0.00 2.87 2.87 87 1014.1
20260901202002 25 3 0.0 0.0 0.00 2.87 2.87 87 1014.1
20260901201503 25 124 0.0 0.0 0.00 2.87 2.87 87 1014.1
20260901201002 25 124 0.0 0.0 0.00 2.87 2.87 87 1014.0
20260901200503 25 124 0.0 0.0 0.00 2.87 2.87 87 1013.9
20260901200004 25 198 0.0 0.0 0.00 2.87 2.87 87 1014.0
20260901195503 25 198 0.0 0.0 0.00 2.87 2.87 87 1014.0
20260901195002 25 198 0.0 0.0 0.00 2.87 2.87 87 1014.0
20260901194503 25 148 0.0 0.0 0.00 2.87 2.87 88 1013.9
20260901194003 25 136 0.0 0.0 0.00 2.87 2.87 88 1014.0
20260901193502 25 136 0.0 0.0 0.00 2.87 2.87 88 1014.1
20260901193002 25 141 0.0 0.0 0.00 2.87 2.87 88 1014.0
20260901192502 25 190 1.6 4.8 0.00 2.87 2.87 88 1014.0
20260901192003 25 222 0.0 1.6 0.00 2.87 2.87 88 1014.0
20260901191003 25 147 1.6 4.8 0.03 2.87 2.87 88 1014.1
20260901190502 25 219 1.6 3.2 0.03 2.87 2.87 88 1014.0
20260901190003 25 185 0.0 3.2 0.03 2.87 2.87 89 1014.0
20260901185503 25 223 1.6 3.2 0.03 2.87 2.87 89 1014.0
20260901185003 25 258 0.0 4.8 0.03 2.87 2.87 89 1013.9
20260901184502 25 222 1.6 4.8 0.03 2.87 2.87 89 1014.0
20260901184003 25 119 0.0 4.8 0.03 2.87 2.87 89 1014.0
20260901183502 25 219 1.6 4.8 0.03 2.87 2.87 89 1014.0
20260901183004 25 235 3.2 4.8 0.03 2.87 2.87 89 1014.0
20260901182502 25 188 1.6 3.2 0.03 2.87 2.87 89 1014.0
20260901182002 25 140 1.6 3.2 0.03 2.87 2.87 89 1014.1
20260901181002 25 174 1.6 4.8 0.00 2.84 2.84 90 1014.1
20260901180004 24 171 1.6 4.8 0.00 2.84 2.84 89 1014.1
20260901175502 24 155 3.2 8.0 0.00 2.84 2.84 89 1014.1
20260901175003 24 125 1.6 4.8 0.00 2.84 2.84 89 1014.2
20260901174503 23 172 0.0 0.0 0.00 2.84 2.84 89 1014.1
20260901174003 23 209 0.0 0.0 0.03 2.84 2.84 89 1014.1
20260901173502 23 172 0.0 0.0 0.03 2.84 2.84 89 1014.3
20260901173002 23 178 0.0 1.6 0.03 2.84 2.84 89 1014.5
20260901172502 23 224 1.6 4.8 0.03 2.84 2.84 89 1014.4
20260901170503 23 220 1.6 3.2 0.08 2.84 2.84 89 1014.5
20260901170003 23 220 1.6 3.2 0.08 2.84 2.84 89 1014.4
20260901165003 23 180 1.6 3.2 0.13 2.84 2.84 89 1014.7
20260901164503 23 184 1.6 4.8 0.13 2.84 2.84 89 1014.9
20260901164003 23 190 3.2 4.8 0.10 2.82 2.82 89 1014.9
20260901163003 23 133 1.6 4.8 0.13 2.82 2.82 89 1015.1
20260901162504 22 141 1.6 3.2 0.13 2.82 2.82 89 1015.3
20260901162003 22 192 1.6 3.2 0.13 2.82 2.82 89 1015.2
20260901161503 22 170 1.6 3.2 0.10 2.79 2.79 89 1015.3
20260901161003 22 178 1.6 3.2 0.10 2.79 2.79 89 1015.3
20260901160502 22 171 3.2 4.8 0.08 2.77 2.77 89 1015.5
20260901155503 22 223 0.0 3.2 0.08 2.74 2.74 89 1015.9
20260901155003 22 226 3.2 4.8 0.15 2.72 2.72 89 1015.7
20260901154504 22 210 1.6 3.2 0.28 2.72 2.72 89 1015.5
20260901154003 22 226 1.6 4.8 0.28 2.72 2.72 89 1015.5
20260901153504 22 170 3.2 4.8 0.28 2.72 2.72 89 1015.5
20260901153004 22 192 0.0 3.2 0.25 2.69 2.69 89 1015.5
20260901152503 22 182 1.6 11.3 0.25 2.69 2.69 89 1015.4
20260901151003 22 224 1.6 3.2 0.28 2.69 2.69 89 1015.6
20260901145503 22 145 1.6 4.8 0.25 2.67 2.67 89 1015.8
20260901145003 22 183 1.6 4.8 0.15 2.57 2.57 89 1016.1
20260901144503 22 207 0.0 0.0 0.03 2.44 2.44 89 1016.2
20260901144004 22 207 0.0 1.6 0.03 2.44 2.44 89 1016.1
20260901143504 22 207 0.0 0.0 0.03 2.44 2.44 89 1016.0
20260901143003 22 207 0.0 0.0 0.03 2.44 2.44 89 1016.0
20260901142504 22 207 0.0 1.6 0.03 2.44 2.44 89 1015.9
20260901142003 22 177 1.6 3.2 0.03 2.44 2.44 89 1015.8
20260901141502 22 194 1.6 3.2 0.00 2.41 2.41 89 1015.9
20260901141003 22 171 1.6 4.8 0.00 2.41 2.41 89 1015.9
20260901140503 22 172 0.0 1.6 0.00 2.41 2.41 89 1015.9
20260901140004 22 229 0.0 3.2 0.00 2.41 2.41 89 1015.9
20260901135503 22 192 1.6 4.8 0.00 2.41 2.41 89 1015.9
20260901135004 22 219 0.0 1.6 0.00 2.41 2.41 89 1015.8
20260901134502 22 219 0.0 1.6 0.00 2.41 2.41 89 1015.6
20260901133503 22 203 1.6 3.2 0.00 2.41 2.41 89 1015.7
20260901133002 22 148 1.6 3.2 0.00 2.41 2.41 89 1015.5
20260901131004 22 227 1.6 3.2 0.00 2.41 2.41 89 1015.6
20260901130503 22 182 0.0 3.2 0.00 2.41 2.41 89 1015.6
20260901125503 22 179 0.0 1.6 0.00 2.41 2.41 89 1015.7
20260901124503 21 198 1.6 1.6 0.00 2.41 2.41 89 1015.9
20260901123502 21 218 1.6 3.2 0.00 2.41 2.41 89 1015.9
20260901123003 21 184 1.6 3.2 0.00 2.41 2.41 89 1015.9
20260901122502 21 182 1.6 3.2 0.00 2.41 2.41 89 1015.9
20260901122002 21 182 0.0 1.6 0.00 2.41 2.41 89 1016.1
20260901121502 21 182 0.0 0.0 0.00 2.41 2.41 89 1016.2
20260901121003 21 182 0.0 3.2 0.00 2.41 2.41 89 1016.0
20260901120502 21 172 1.6 3.2 0.00 2.41 2.41 89 1015.9
20260901120003 21 172 1.6 3.2 0.00 2.41 2.41 89 1015.9
20260901115003 21 212 1.6 3.2 0.00 2.41 2.41 89 1015.9
20260901114503 21 214 0.0 3.2 0.00 2.41 2.41 89 1015.9
20260901114003 21 182 0.0 1.6 0.00 2.41 2.41 89 1015.8
20260901113503 21 180 1.6 4.8 0.00 2.41 2.41 88 1015.9
20260901113003 21 199 0.0 1.6 0.00 2.41 2.41 88 1016.0
20260901112503 21 199 0.0 3.2 0.00 2.41 2.41 88 1016.0
20260901112003 21 244 1.6 3.2 0.00 2.41 2.41 88 1016.0
20260901111503 21 227 0.0 4.8 0.00 2.41 2.41 88 1016.1
20260901110503 21 176 1.6 4.8 0.00 2.41 2.41 89 1015.9
20260901110004 21 172 1.6 4.8 0.00 2.41 2.41 89 1015.9
20260901105502 21 177 1.6 4.8 0.00 2.41 2.41 88 1015.9
20260901105004 21 172 1.6 3.2 0.00 2.41 2.41 88 1015.9
20260901104003 21 172 1.6 4.8 0.00 2.41 2.41 88 1015.7
20260901103503 21 172 1.6 3.2 0.00 2.41 2.41 88 1015.7
20260901102003 21 177 1.6 3.2 0.00 2.41 2.41 88 1015.6
20260901101503 21 177 1.6 4.8 0.00 2.41 2.41 88 1015.7
20260901101003 21 177 1.6 4.8 0.00 2.41 2.41 88 1015.7
20260901100503 21 197 0.0 0.0 0.00 2.41 2.41 88 1015.8
20260901100004 21 192 0.0 0.0 0.00 2.41 2.41 88 1015.7
20260901095503 21 225 0.0 0.0 0.00 2.41 2.41 88 1015.6
20260901095004 21 194 0.0 0.0 0.00 2.41 2.41 88 1015.5
20260901094003 21 194 0.0 0.0 0.00 2.41 2.41 88 1015.6
20260901092503 21 182 0.0 0.0 0.00 2.41 2.41 88 1015.9
20260901092003 21 198 0.0 0.0 0.00 2.41 2.41 88 1015.9
20260901091503 21 203 0.0 0.0 0.00 2.41 2.41 88 1015.8
20260901091003 21 182 0.0 0.0 0.00 2.41 2.41 88 1015.8
20260901090504 21 182 0.0 0.0 0.03 2.41 2.41 88 1015.8
20260901090003 21 182 0.0 0.0 0.03 2.41 2.41 88 1015.9
20260901085503 21 182 0.0 0.0 0.03 2.41 2.41 88 1015.8
20260901085002 21 182 0.0 0.0 0.03 2.41 2.41 88 1015.9
20260901084503 21 182 0.0 0.0 0.03 2.41 2.41 88 1016.0
20260901084003 21 182 0.0 0.0 0.03 2.41 2.41 88 1016.0
20260901083503 21 182 0.0 0.0 0.03 2.41 2.41 88 1016.1
20260901083004 21 182 0.0 0.0 0.03 2.41 2.41 88 1016.1
20260901081003 21 196 0.0 0.0 0.13 2.41 2.41 87 1016.2
20260901080003 21 143 1.6 3.2 0.23 2.39 2.39 87 1016.3
20260901075504 21 165 1.6 3.2 0.36 2.39 2.39 87 1016.4
20260901075002 21 163 1.6 3.2 0.41 2.39 2.39 87 1016.3
20260901074502 21 151 0.0 3.2 0.43 2.39 2.39 87 1016.3
20260901074003 21 173 1.6 3.2 0.43 2.39 2.39 87 1016.4
20260901073502 21 177 1.6 3.2 0.46 2.39 2.39 87 1016.5
20260901073003 21 203 0.0 0.0 0.51 2.39 2.39 87 1016.6
20260901072503 21 182 0.0 0.0 0.53 2.39 2.39 87 1016.7
20260901071502 21 240 0.0 1.6 0.51 2.34 2.34 87 1016.8
20260901071003 21 240 1.6 3.2 0.74 2.29 2.29 87 1016.6
20260901070503 21 168 0.0 0.0 0.94 2.26 2.26 86 1016.5
20260901070003 21 145 0.0 0.0 0.99 2.16 2.16 86 1016.7
20260901065503 21 145 0.0 0.0 0.97 2.03 2.03 86 1016.8
20260901065003 21 145 0.0 0.0 0.99 1.98 1.98 86 1016.7
20260901064503 21 145 0.0 0.0 1.09 1.96 1.96 86 1016.7
20260901064004 21 145 0.0 0.0 1.22 1.96 1.96 86 1016.7
20260901063503 21 145 0.0 0.0 1.35 1.93 1.93 86 1016.7
20260901063004 21 145 0.0 0.0 1.42 1.91 1.91 85 1016.7
20260901062503 21 203 0.0 0.0 1.45 1.85 1.85 84 1016.6
20260901062003 21 182 0.0 0.0 1.55 1.85 1.85 83 1016.5
20260901061503 21 182 0.0 1.6 1.60 1.83 1.83 82 1016.6
20260901060503 21 182 0.0 3.2 1.19 1.35 1.35 81 1016.9
20260901060002 21 182 1.6 3.2 1.09 1.22 1.22 81 1016.9
20260901055503 21 188 0.0 0.0 1.04 1.09 1.09 81 1017.1
20260901055003 21 186 0.0 0.0 0.97 0.99 0.99 81 1017.2
20260901054003 22 153 0.0 3.2 0.74 0.74 0.74 80 1017.2
20260901053003 22 234 0.0 0.0 0.48 0.48 0.48 79 1017.4
20260901052503 22 188 0.0 0.0 0.41 0.41 0.41 79 1017.4
20260901052004 22 188 0.0 0.0 0.30 0.30 0.30 79 1017.5
20260901051502 22 188 0.0 0.0 0.23 0.23 0.23 78 1017.5
20260901051003 22 188 0.0 0.0 0.18 0.18 0.18 78 1017.4
20260901050503 22 188 0.0 0.0 0.15 0.15 0.15 78 1017.4
20260901045502 22 188 0.0 0.0 0.05 0.05 0.05 77 1017.5
20260901045004 22 192 0.0 0.0 0.03 0.03 0.03 77 1017.4
20260901044505 22 195 0.0 0.0 0.03 0.03 0.03 77 1017.3
20260901044003 22 195 0.0 0.0 0.00 0.00 0.00 77 1017.3
20260901043504 22 195 0.0 0.0 0.00 0.00 0.00 76 1017.3
20260901043004 22 195 0.0 0.0 0.00 0.00 0.00 76 1017.3
20260901042503 22 195 0.0 0.0 0.00 0.00 0.00 76 1017.3
20260901042003 22 167 0.0 0.0 0.00 0.00 0.00 76 1017.2
20260901041005 22 167 0.0 0.0 0.00 0.00 0.00 76 1017.3
20260901040502 22 167 0.0 0.0 0.00 0.00 0.00 76 1017.2
20260901040003 22 145 0.0 0.0 0.00 0.00 0.00 76 1017.3
20260901035502 22 145 0.0 0.0 0.00 0.00 0.00 76 1017.4
20260901035003 22 145 0.0 0.0 0.00 0.00 0.00 75 1017.5
20260901034504 22 145 0.0 0.0 0.00 0.00 0.00 75 1017.5
20260901034003 22 109 0.0 0.0 0.00 0.00 0.00 75 1017.6
20260901033003 22 182 0.0 0.0 0.00 0.00 0.00 75 1017.7
20260901032003 22 182 0.0 0.0 0.00 0.00 0.00 75 1017.8
20260901031504 22 182 0.0 0.0 0.00 0.00 0.00 74 1017.8
20260901031003 22 188 0.0 0.0 0.00 0.00 0.00 74 1017.9
20260901030503 22 188 0.0 0.0 0.00 0.00 0.00 74 1017.9
20260901030004 22 203 0.0 0.0 0.00 0.00 0.00 74 1017.9
20260901025002 22 190 0.0 0.0 0.00 0.00 0.00 74 1017.9
20260901024503 22 172 0.0 0.0 0.00 0.00 0.00 74 1018.0
20260901023504 22 182 0.0 0.0 0.00 0.00 0.00 74 1018.1
20260901022502 22 172 0.0 0.0 0.00 0.00 0.00 74 1018.1
20260901022002 22 172 0.0 0.0 0.00 0.00 0.00 74 1018.1
20260901021503 22 172 0.0 0.0 0.00 0.00 0.00 74 1018.1
20260901021003 22 172 0.0 1.6 0.00 0.00 0.00 74 1018.2
20260901020503 22 172 0.0 1.6 0.00 0.00 0.00 73 1018.2
20260901020003 22 172 1.6 3.2 0.00 0.03 0.00 73 1018.1
20260901015003 22 197 1.6 4.8 0.00 0.03 0.00 73 1018.1
20260901014504 22 217 0.0 3.2 0.00 0.05 0.00 73 1018.2
20260901014003 22 189 1.6 4.8 0.00 0.05 0.00 73 1018.2
20260901013503 22 172 0.0 0.0 0.00 0.05 0.00 73 1018.3
20260901013003 22 172 0.0 0.0 0.00 0.05 0.00 73 1018.3
20260901012003 22 172 0.0 0.0 0.00 0.05 0.00 73 1018.3
20260901011502 22 172 0.0 3.2 0.00 0.05 0.00 73 1018.2
20260901011003 22 172 1.6 3.2 0.00 0.05 0.00 73 1018.2
20260901010503 22 192 0.0 3.2 0.00 0.05 0.00 73 1018.2
20260901010003 22 199 0.0 3.2 0.00 0.05 0.00 73 1018.1
20260901005503 22 199 1.6 4.8 0.00 0.05 0.00 73 1018.1
20260901004504 22 185 0.0 4.8 0.00 0.05 0.00 73 1018.2
20260901004003 22 229 1.6 4.8 0.00 0.05 0.00 73 1018.1
20260901003503 22 191 0.0 0.0 0.00 0.05 0.00 73 1018.1
20260901003003 22 196 0.0 1.6 0.00 0.05 0.00 73 1018.1
20260901002504 22 192 1.6 3.2 0.00 0.05 0.00 73 1018.1
20260901002004 22 201 0.0 3.2 0.00 0.05 0.00 73 1018.0
20260901001003 22 186 0.0 3.2 0.00 0.05 0.00 73 1017.9
20260901000503 22 203 0.0 3.2 0.00 0.05 0.00 73 1017.9
20260901000004 22 199 1.6 4.8 0.00 0.05 0.00 73 1018.0
20260831235503 22 245 0.0 3.2 0.00 0.05 0.00 72 1018.1
20260831235003 22 193 0.0 3.2 0.00 0.05 0.00 72 1018.1
20260831234503 22 182 1.6 4.8 0.00 0.05 0.00 72 1018.1
20260831234003 22 205 0.0 0.0 0.00 0.05 0.00 72 1018.2
20260831233504 22 201 0.0 0.0 0.00 0.05 0.00 72 1018.2
20260831233003 22 177 0.0 3.2 0.00 0.05 0.00 72 1018.3
20260831232503 22 203 0.0 1.6 0.00 0.05 0.00 72 1018.3
20260831232003 22 207 0.0 3.2 0.00 0.05 0.00 72 1018.3
20260831231503 22 155 0.0 4.8 0.00 0.05 0.00 72 1018.4
20260831230504 23 339 0.0 3.2 0.00 0.05 0.00 72 1018.5
20260831230003 23 172 0.0 1.6 0.00 0.05 0.00 72 1018.3
20260831225503 23 221 0.0 1.6 0.00 0.05 0.00 72 1018.4
20260831224504 23 217 0.0 4.8 0.00 0.05 0.00 71 1018.3
20260831223504 23 194 1.6 4.8 0.00 0.05 0.00 71 1018.2